Location: Glums�
(55.3568°N, 11.6856°E)
Time: 01:51:06
(UTC+00:00)

BREEZE-M DEB (TANK) - Pass Details

Date: 07 June 2020
Orbit: 324 x 12054 km, 49.6° (Epoch: 05 July)

Event Time Altitude Azimuth Distance (km) Brightness Sun altitude
Rises 01:23:47 0° 262° (W) 2,398 5.0 -7.0°
Reaches altitude 10° 01:26:07 10° 245° (WSW) 1,289 3.5 -6.8°
Maximum altitude 01:28:06 23° 188° (S) 767 2.4 -6.7°
Drops below altitude 10° 01:30:14 10° 130° (SE) 1,386 4.1 -6.5°
Sets 01:32:53 0° 115° (ESE) 2,661 5.7 -6.3°
